Weather History for Frederick, MD

Change the Weather History Date:

Tuesday, November 12, 2013

  Actual Average (KHGR) Record (KHGR)
Temperature  
Mean Temperature 40 °F -  
Max Temperature 51 °F 50 °F 65 °F (2012)
Min Temperature 28 °F 35 °F 24 °F (1996)
Degree Days  
Heating Degree Days 26    
Moisture  
Dew Point 27 °F    
Average Humidity 61    
Maximum Humidity 76    
Minimum Humidity 42    
Precipitation  
Precipitation 0.00 in - - ()
Sea Level Pressure  
Sea Level Pressure 30.23 in    
Wind  
Wind Speed 6 mph (NNW)    
Max Wind Speed 20 mph    
Max Gust Speed 28 mph    
Visibility 10 miles    
Events      
Averages and records for this station are not official NWS values.
T = Trace of Precipitation, MM = Missing Value Source: NWS Daily Summary

Daily Weather History Graph

Daily Weather History Graph

Search for Another Location

Airport:

Trip Planner

Search our weather history database for the weather conditions in past years. The results will help you decide how hot, cold, wet, or windy it might be!

Date:

Astronomy

Nov. 12, 2013 Rise Set
Actual Time 6:50 AM EST 4:56 PM EST
Civil Twilight 6:21 AM EST 5:25 PM EST
Nautical Twilight 5:49 AM EST 5:57 PM EST
Astronomical Twilight 5:17 AM EST 6:29 PM EST
Moon 2:08 PM EST (11/12) 1:39 AM EST (11/12)
Length of Visible Light 11h 03m
Length of Day
10h 06m
Waxing Gibbous, 76% of the Moon is Illuminated
Nov 12
Waxing Gibbous
Nov 17
Full
Nov 25
Last Quarter
Dec 2
New
Dec 9
First Quarter

Hourly Weather History & Observations

Time (EST) Temp. Windchill Dew Point Humidity Pressure Visibility Wind Dir Wind Speed Gust Speed Precip Events Conditions
12:00 AM 44.6 °F - 37.4 °F 76% 30.04 in 10.0 mi Calm Calm - N/A   Overcast
12:20 AM 44.6 °F - 35.6 °F 71% 30.03 in 10.0 mi Calm Calm - N/A   Overcast
12:40 AM 44.6 °F 43.1 °F 35.6 °F 71% 30.02 in 10.0 mi SSE 3.5 mph - N/A   Overcast
1:00 AM 44.6 °F - 33.8 °F 66% 30.02 in 10.0 mi Calm Calm - N/A   Overcast
1:20 AM 44.6 °F - 33.8 °F 66% 30.02 in 10.0 mi Calm Calm - N/A   Overcast
1:40 AM 46.4 °F - 33.8 °F 62% 30.01 in 10.0 mi Calm Calm - N/A   Overcast
2:00 AM 44.6 °F - 35.6 °F 71% 30.01 in 10.0 mi Calm Calm - N/A   Overcast
2:20 AM 44.6 °F - 35.6 °F 71% 30.01 in 10.0 mi Calm Calm - N/A   Overcast
2:40 AM 44.6 °F - 35.6 °F 71% 30.02 in 10.0 mi Calm Calm - N/A   Overcast
3:00 AM 46.4 °F 44.3 °F 35.6 °F 66% 30.01 in 10.0 mi NNW 4.6 mph - N/A   Overcast
3:20 AM 50.0 °F - 35.6 °F 58% 30.01 in 10.0 mi Calm Calm - N/A   Overcast
3:40 AM 50.0 °F - 35.6 °F 58% 30.01 in 10.0 mi Calm Calm - N/A   Overcast
4:00 AM 50.0 °F - 35.6 °F 58% 30.01 in 10.0 mi WNW 8.1 mph - N/A   Overcast
4:20 AM 51.8 °F - 37.4 °F 58% 30.02 in 10.0 mi NW 17.3 mph 23.0 mph N/A   Overcast
4:40 AM 50.0 °F - 37.4 °F 62% 30.04 in 10.0 mi NNW 18.4 mph 24.2 mph N/A   Overcast
5:00 AM 46.4 °F 39.8 °F 39.2 °F 76% 30.07 in 10.0 mi NNW 16.1 mph 27.6 mph N/A   Overcast
5:20 AM 46.4 °F 39.0 °F 37.4 °F 71% 30.08 in 10.0 mi NNW 19.6 mph - N/A   Overcast
5:40 AM 44.6 °F 36.6 °F 35.6 °F 71% 30.10 in 10.0 mi NW 19.6 mph 26.5 mph N/A   Overcast
6:50 AM 42.8 °F 35.8 °F 33.8 °F 70% 30.16 in 10.0 mi NNW 13.8 mph 20.7 mph N/A   Overcast
7:50 AM 39.2 °F 30.8 °F 28.4 °F 65% 30.22 in 10.0 mi NNW 15.0 mph 21.9 mph N/A   Mostly Cloudy
8:50 AM 37.4 °F 28.5 °F 26.6 °F 65% 30.26 in 10.0 mi NNW 15.0 mph 20.7 mph N/A   Mostly Cloudy
9:50 AM 37.4 °F 29.3 °F 21.2 °F 52% 30.29 in 10.0 mi North 12.7 mph - N/A   Mostly Cloudy
10:52 AM 37.4 °F 29.3 °F 21.2 °F 52% 30.30 in 10.0 mi NNE 12.7 mph 21.9 mph N/A   Scattered Clouds
11:55 AM 37.4 °F 29.3 °F 21.2 °F 52% 30.29 in 10.0 mi North 12.7 mph 17.3 mph N/A   Scattered Clouds
12:50 PM 37.4 °F 28.9 °F 19.4 °F 48% 30.29 in 10.0 mi North 13.8 mph 26.5 mph N/A   Clear
1:50 PM 39.2 °F 32.0 °F 19.4 °F 45% 30.29 in 10.0 mi North 11.5 mph 23.0 mph N/A   Mostly Cloudy
2:45 PM 39.2 °F 32.5 °F 19.4 °F 45% 30.30 in 10.0 mi North 10.4 mph 23.0 mph N/A   Overcast
3:45 PM 39.2 °F 30.2 °F 17.6 °F 42% 30.31 in 10.0 mi North 17.3 mph 23.0 mph N/A   Clear
4:55 PM 37.4 °F 29.8 °F 17.6 °F 45% 30.34 in 10.0 mi NNW 11.5 mph - N/A   Clear
5:45 PM 35.6 °F 28.0 °F 15.8 °F 44% 30.36 in 10.0 mi NNW 10.4 mph - N/A   Clear
6:45 PM 33.8 °F 29.6 °F 15.8 °F 48% 30.39 in 10.0 mi NNW 4.6 mph - N/A   Clear
7:45 PM 32.0 °F - 17.6 °F 55% 30.40 in 10.0 mi Calm Calm - N/A   Clear
7:50 PM 30.2 °F - 17.6 °F 60% 30.40 in 10.0 mi Calm Calm - N/A   Clear
8:05 PM 32.0 °F 27.5 °F 17.6 °F 55% 30.40 in 10.0 mi NW 4.6 mph - N/A   Clear
8:25 PM 30.2 °F 23.4 °F 19.4 °F 64% 30.41 in 10.0 mi WNW 6.9 mph - N/A   Clear
8:45 PM 30.2 °F 22.6 °F 19.4 °F 64% 30.41 in 10.0 mi NW 8.1 mph - N/A   Clear
9:05 PM 30.2 °F 24.3 °F 19.4 °F 64% 30.42 in 10.0 mi NW 5.8 mph - N/A   Clear
9:25 PM 30.2 °F 26.7 °F 19.4 °F 64% 30.42 in 10.0 mi NW 3.5 mph - N/A   Clear
9:45 PM 28.4 °F - 19.4 °F 69% 30.42 in 10.0 mi Calm Calm - N/A   Clear
10:05 PM 28.4 °F 23.3 °F 19.4 °F 69% 30.43 in 10.0 mi WNW 4.6 mph - N/A   Clear
10:25 PM 30.2 °F 24.3 °F 19.4 °F 64% 30.43 in 10.0 mi WNW 5.8 mph - N/A   Clear
10:45 PM 30.2 °F 24.3 °F 19.4 °F 64% 30.43 in 10.0 mi West 5.8 mph - N/A   Clear
11:05 PM 30.2 °F 22.6 °F 21.2 °F 69% 30.43 in 10.0 mi NW 8.1 mph - N/A   Clear
11:25 PM 32.0 °F 23.6 °F 21.2 °F 64% 30.43 in 10.0 mi NW 10.4 mph 18.4 mph N/A   Clear
11:45 PM 32.0 °F 25.6 °F 21.2 °F 64% 30.44 in 10.0 mi NNW 6.9 mph - N/A   Clear